Terminal Aerodrome Forecast
Issued by NWS Flagstaff, AZ

Home | Current Version | Previous Version | Text Only | Print | Product List | Glossary On
Versions: 1 2 3 4 5 6 7 8 9 10 11 12 13 14 15 16 17 18
377
FTUS45 KFGZ 040520
TAFINW
TAF
KINW 040520Z 0406/0506 VRB06KT P6SM FEW250
     FM041800 16011G18KT P6SM FEW250
     FM050300 24005KT P6SM SCT250=

USA.gov is the U.S. government's official web portal to all federal, state and local government web resources and services.